FLX9911 SBPK-SBFI

Flight info

Callsign FLX9911
Flight time 1h 7m
Altitude 37000
Route VURAG DCT EPGEP/N0468F360 UZ83 NELUP
Aircraft B738/M-SDE2E3FGHIRWXY/LB1

Departure

Time 2026-04-20 21:29
Airport João Simões Lopes Neto International Airport (SBPK)

Arrival

Time 2026-04-20 22:36
Airport Cataratas International Airport (SBFI)
Time Latitude Longitude Altitude Speed Heading
2026-04-20 21:12 -31.71609 -52.33040 62 ft 0 kts 40°
2026-04-20 21:23 -31.71614 -52.33045 54 ft 4 kts 37°
2026-04-20 21:23 -31.71635 -52.33056 58 ft 4 kts 348°
2026-04-20 21:24 -31.71648 -52.33043 57 ft 4 kts 270°
2026-04-20 21:24 -31.71644 -52.33023 58 ft 0 kts 230°
2026-04-20 21:26 -31.71645 -52.33025 59 ft 1 kts 230°
2026-04-20 21:26 -31.71653 -52.33037 59 ft 3 kts 229°
2026-04-20 21:26 -31.71687 -52.33051 65 ft 7 kts 180°
2026-04-20 21:26 -31.71742 -52.33017 65 ft 11 kts 143°
2026-04-20 21:27 -31.71820 -52.32965 60 ft 15 kts 182°
2026-04-20 21:27 -31.71904 -52.33057 59 ft 18 kts 230°
2026-04-20 21:27 -31.71989 -52.33181 57 ft 21 kts 232°
2026-04-20 21:27 -31.72085 -52.33322 63 ft 23 kts 231°
2026-04-20 21:28 -31.72139 -52.33427 67 ft 4 kts 214°
2026-04-20 21:28 -31.72149 -52.33425 66 ft 2 kts 153°
2026-04-20 21:28 -31.72150 -52.33408 65 ft 2 kts 58°
2026-04-20 21:28 -31.72076 -52.33309 63 ft 52 kts 51°
2026-04-20 21:29 -31.71649 -52.32688 60 ft 140 kts 51°
2026-04-20 21:29 -31.70905 -52.31592 372 ft 191 kts 52°
2026-04-20 21:29 -31.70088 -52.30420 1737 ft 177 kts 53°
2026-04-20 21:29 -31.69339 -52.29283 2806 ft 187 kts 53°
2026-04-20 21:30 -31.68477 -52.28003 3149 ft 214 kts 49°
2026-04-20 21:30 -31.67186 -52.27034 3515 ft 233 kts 13°
2026-04-20 21:30 -31.65540 -52.27093 4145 ft 242 kts 353°
2026-04-20 21:30 -31.63800 -52.27361 4606 ft 259 kts 354°
2026-04-20 21:31 -31.61975 -52.27609 5338 ft 267 kts 354°
2026-04-20 21:31 -31.60123 -52.27847 6352 ft 268 kts 353°
2026-04-20 21:31 -31.58253 -52.28078 7223 ft 272 kts 353°
2026-04-20 21:31 -31.56361 -52.28304 8078 ft 276 kts 353°
2026-04-20 21:32 -31.54439 -52.28528 8961 ft 278 kts 352°
2026-04-20 21:32 -31.52510 -52.28748 9904 ft 280 kts 352°
2026-04-20 21:32 -31.50548 -52.28970 10586 ft 290 kts 352°
2026-04-20 21:32 -31.48446 -52.29209 10787 ft 316 kts 352°
2026-04-20 21:33 -31.46174 -52.29465 10975 ft 341 kts 352°
2026-04-20 21:33 -31.43734 -52.29737 11174 ft 362 kts 352°
2026-04-20 21:33 -31.41221 -52.30012 11650 ft 371 kts 352°
2026-04-20 21:33 -31.38633 -52.30291 12308 ft 374 kts 352°
2026-04-20 21:34 -31.36030 -52.30571 13031 ft 376 kts 352°
2026-04-20 21:34 -31.33418 -52.30853 13698 ft 380 kts 352°
2026-04-20 21:34 -31.30769 -52.31139 14262 ft 384 kts 352°
2026-04-20 21:34 -31.28093 -52.31429 14836 ft 387 kts 352°
2026-04-20 21:35 -31.25410 -52.31719 15451 ft 389 kts 352°
2026-04-20 21:35 -31.22702 -52.32011 16054 ft 392 kts 352°
2026-04-20 21:35 -31.19985 -52.32305 16629 ft 394 kts 352°
2026-04-20 21:35 -31.17240 -52.32601 17211 ft 397 kts 352°
2026-04-20 21:36 -31.14479 -52.32900 17800 ft 399 kts 353°
2026-04-20 21:36 -31.11703 -52.33199 18364 ft 401 kts 353°
2026-04-20 21:36 -31.08921 -52.33500 18846 ft 403 kts 353°
2026-04-20 21:36 -31.06113 -52.33803 19308 ft 406 kts 353°
2026-04-20 21:37 -31.03286 -52.34107 19755 ft 409 kts 353°
2026-04-20 21:37 -31.00442 -52.34414 20208 ft 411 kts 353°
2026-04-20 21:37 -30.97590 -52.34721 20647 ft 414 kts 353°
2026-04-20 21:37 -30.95689 -52.34926 20930 ft 415 kts 353°
2026-04-20 21:38 -30.92801 -52.35236 21367 ft 417 kts 353°
2026-04-20 21:38 -30.88949 -52.35651 21920 ft 421 kts 353°
2026-04-20 21:38 -30.86977 -52.35863 22193 ft 422 kts 353°
2026-04-20 21:38 -30.83091 -52.36280 22697 ft 425 kts 353°
2026-04-20 21:39 -30.81098 -52.36494 22964 ft 427 kts 353°
2026-04-20 21:39 -30.78129 -52.36812 23343 ft 429 kts 353°
2026-04-20 21:39 -30.75145 -52.37132 23689 ft 431 kts 353°
2026-04-20 21:39 -30.72157 -52.37453 23978 ft 433 kts 353°
2026-04-20 21:40 -30.69184 -52.37771 24253 ft 435 kts 353°
2026-04-20 21:40 -30.66127 -52.38098 24531 ft 437 kts 352°
2026-04-20 21:40 -30.63127 -52.38419 24800 ft 439 kts 352°
2026-04-20 21:40 -30.60072 -52.38746 25054 ft 442 kts 352°
2026-04-20 21:41 -30.57000 -52.39074 25300 ft 444 kts 352°
2026-04-20 21:41 -30.53913 -52.39404 25547 ft 446 kts 352°
2026-04-20 21:41 -30.50810 -52.39735 25774 ft 449 kts 352°
2026-04-20 21:41 -30.47696 -52.40067 25987 ft 451 kts 352°
2026-04-20 21:42 -30.44557 -52.40402 26215 ft 454 kts 352°
2026-04-20 21:42 -30.41403 -52.40737 26445 ft 456 kts 352°
2026-04-20 21:42 -30.38246 -52.41073 26661 ft 458 kts 352°
2026-04-20 21:42 -30.35062 -52.41412 26845 ft 460 kts 352°
2026-04-20 21:43 -30.31860 -52.41752 27041 ft 463 kts 352°
2026-04-20 21:43 -30.28643 -52.42093 27240 ft 465 kts 352°
2026-04-20 21:43 -30.25445 -52.42433 27440 ft 467 kts 352°
2026-04-20 21:43 -30.22211 -52.42775 27616 ft 469 kts 351°
2026-04-20 21:44 -30.18952 -52.43120 27798 ft 471 kts 352°
2026-04-20 21:44 -30.15668 -52.43325 28027 ft 473 kts 356°
2026-04-20 21:44 -30.12370 -52.43322 28319 ft 473 kts 357°
2026-04-20 21:44 -30.09072 -52.43264 28605 ft 473 kts 357°
2026-04-20 21:45 -30.05783 -52.43195 28864 ft 474 kts 357°
2026-04-20 21:45 -30.02479 -52.43134 29128 ft 474 kts 357°
2026-04-20 21:45 -29.99174 -52.43086 29411 ft 474 kts 357°
2026-04-20 21:45 -29.95870 -52.43049 29715 ft 474 kts 356°
2026-04-20 21:46 -29.92568 -52.43021 30024 ft 474 kts 356°
2026-04-20 21:46 -29.89275 -52.42998 30292 ft 474 kts 356°
2026-04-20 21:46 -29.85974 -52.42977 30577 ft 473 kts 356°
2026-04-20 21:46 -29.82692 -52.42956 30889 ft 472 kts 356°
2026-04-20 21:47 -29.79409 -52.42935 31210 ft 471 kts 356°
2026-04-20 21:47 -29.76176 -52.42914 31502 ft 470 kts 356°
2026-04-20 21:47 -29.72901 -52.42893 31780 ft 470 kts 356°
2026-04-20 21:47 -29.69597 -52.42871 32096 ft 469 kts 356°
2026-04-20 21:48 -29.66376 -52.42849 32419 ft 468 kts 355°
2026-04-20 21:48 -29.63118 -52.42827 32738 ft 467 kts 355°
2026-04-20 21:48 -29.59864 -52.42805 33057 ft 467 kts 355°
2026-04-20 21:48 -29.56613 -52.42783 33350 ft 466 kts 355°
2026-04-20 21:49 -29.53366 -52.42761 33653 ft 466 kts 355°
2026-04-20 21:49 -29.50132 -52.42739 33932 ft 466 kts 355°
2026-04-20 21:49 -29.46889 -52.42718 34174 ft 465 kts 355°
2026-04-20 21:49 -29.43661 -52.42696 34423 ft 464 kts 355°
2026-04-20 21:50 -29.40430 -52.42674 34715 ft 463 kts 354°
2026-04-20 21:50 -29.37209 -52.42652 34998 ft 462 kts 354°
2026-04-20 21:50 -29.34004 -52.42631 35239 ft 461 kts 354°
2026-04-20 21:50 -29.30788 -52.42610 35462 ft 462 kts 354°
2026-04-20 21:51 -29.27575 -52.42589 35723 ft 461 kts 354°
2026-04-20 21:51 -29.24380 -52.42567 36001 ft 459 kts 354°
2026-04-20 21:51 -29.21186 -52.42545 36275 ft 458 kts 353°
2026-04-20 21:51 -29.18008 -52.42523 36497 ft 458 kts 353°
2026-04-20 21:52 -29.14814 -52.42503 36692 ft 459 kts 353°
2026-04-20 21:52 -29.11619 -52.42483 36912 ft 458 kts 353°
2026-04-20 21:52 -29.08466 -52.42462 37037 ft 460 kts 353°
2026-04-20 21:53 -29.02009 -52.42420 37016 ft 460 kts 353°
2026-04-20 21:53 -28.95667 -52.42375 37026 ft 457 kts 353°
2026-04-20 21:54 -28.89312 -52.42332 37018 ft 455 kts 353°
2026-04-20 21:54 -28.82984 -52.42291 37019 ft 455 kts 353°
2026-04-20 21:55 -28.76648 -52.42250 37022 ft 455 kts 353°
2026-04-20 21:55 -28.70308 -52.42209 37010 ft 457 kts 353°
2026-04-20 21:56 -28.63939 -52.42167 37023 ft 459 kts 353°
2026-04-20 21:56 -28.57576 -52.42125 37018 ft 461 kts 353°
2026-04-20 21:57 -28.51147 -52.42083 37048 ft 463 kts 353°
2026-04-20 21:57 -28.44657 -52.42039 37061 ft 464 kts 353°
2026-04-20 21:58 -28.38279 -52.42515 37075 ft 453 kts 341°
2026-04-20 21:58 -28.32471 -52.44850 37095 ft 443 kts 330°
2026-04-20 21:59 -28.26788 -52.47587 37096 ft 444 kts 331°
2026-04-20 21:59 -28.21068 -52.50285 37077 ft 445 kts 331°
2026-04-20 22:00 -28.15344 -52.52956 37069 ft 445 kts 331°
2026-04-20 22:00 -28.09607 -52.55624 37045 ft 445 kts 331°
2026-04-20 22:01 -28.03882 -52.58286 37031 ft 445 kts 331°
2026-04-20 22:01 -27.98159 -52.60944 37011 ft 445 kts 331°
2026-04-20 22:02 -27.92429 -52.63604 37015 ft 444 kts 332°
2026-04-20 22:02 -27.86712 -52.66254 37022 ft 444 kts 332°
2026-04-20 22:03 -27.80994 -52.68902 37018 ft 444 kts 332°
2026-04-20 22:03 -27.75264 -52.71552 37015 ft 445 kts 332°
2026-04-20 22:04 -27.69575 -52.74181 37011 ft 445 kts 332°
2026-04-20 22:04 -27.63831 -52.76832 37011 ft 446 kts 332°
2026-04-20 22:05 -27.58091 -52.79478 37007 ft 446 kts 332°
2026-04-20 22:05 -27.52347 -52.82132 37004 ft 446 kts 330°
2026-04-20 22:06 -27.46856 -52.85287 37007 ft 442 kts 326°
2026-04-20 22:06 -27.41454 -52.88609 37014 ft 443 kts 326°
2026-04-20 22:07 -27.36023 -52.91907 36998 ft 444 kts 326°
2026-04-20 22:07 -27.30597 -52.95161 36998 ft 445 kts 326°
2026-04-20 22:08 -27.25133 -52.98424 36985 ft 445 kts 326°
2026-04-20 22:08 -27.19656 -53.01690 36990 ft 445 kts 326°
2026-04-20 22:09 -27.14181 -53.04954 36989 ft 446 kts 327°
2026-04-20 22:09 -27.08695 -53.08221 36974 ft 447 kts 327°
2026-04-20 22:10 -27.03191 -53.11495 36984 ft 447 kts 327°
2026-04-20 22:10 -26.97687 -53.14767 36983 ft 448 kts 327°
2026-04-20 22:11 -26.92169 -53.18036 36984 ft 449 kts 327°
2026-04-20 22:11 -26.86631 -53.21297 36988 ft 449 kts 327°
2026-04-20 22:12 -26.81099 -53.24558 36991 ft 449 kts 327°
2026-04-20 22:12 -26.75603 -53.27823 36995 ft 450 kts 327°
2026-04-20 22:13 -26.70073 -53.31110 36999 ft 451 kts 327°
2026-04-20 22:13 -26.64534 -53.34395 36996 ft 451 kts 327°
2026-04-20 22:14 -26.58989 -53.37680 36997 ft 451 kts 327°
2026-04-20 22:14 -26.53430 -53.40969 37002 ft 452 kts 327°
2026-04-20 22:14 -26.50654 -53.42610 36819 ft 455 kts 327°
2026-04-20 22:15 -26.47836 -53.44277 36282 ft 458 kts 328°
2026-04-20 22:15 -26.45021 -53.45938 35620 ft 457 kts 328°
2026-04-20 22:15 -26.42202 -53.47600 34732 ft 461 kts 328°
2026-04-20 22:15 -26.39330 -53.49291 33852 ft 468 kts 329°
2026-04-20 22:16 -26.36440 -53.50986 32910 ft 471 kts 329°
2026-04-20 22:16 -26.33536 -53.52687 32123 ft 471 kts 329°
2026-04-20 22:16 -26.30633 -53.54387 31291 ft 472 kts 329°
2026-04-20 22:16 -26.27720 -53.56093 30435 ft 473 kts 328°
2026-04-20 22:17 -26.24804 -53.57801 29447 ft 475 kts 329°
2026-04-20 22:17 -26.21879 -53.59514 28436 ft 474 kts 329°
2026-04-20 22:17 -26.18957 -53.61224 27425 ft 474 kts 329°
2026-04-20 22:17 -26.16035 -53.62933 26401 ft 474 kts 329°
2026-04-20 22:18 -26.13149 -53.64620 25551 ft 471 kts 330°
2026-04-20 22:18 -26.10272 -53.66299 24829 ft 464 kts 330°
2026-04-20 22:18 -26.07429 -53.67959 24090 ft 458 kts 330°
2026-04-20 22:18 -26.04617 -53.69600 23309 ft 453 kts 330°
2026-04-20 22:19 -26.01839 -53.71220 22482 ft 448 kts 330°
2026-04-20 22:19 -25.99102 -53.72816 21730 ft 441 kts 331°
2026-04-20 22:19 -25.96402 -53.74390 21008 ft 435 kts 331°
2026-04-20 22:19 -25.93738 -53.75942 20289 ft 429 kts 331°
2026-04-20 22:20 -25.91110 -53.77473 19603 ft 424 kts 331°
2026-04-20 22:20 -25.88509 -53.78986 18918 ft 420 kts 331°
2026-04-20 22:20 -25.86009 -53.80546 18215 ft 416 kts 326°
2026-04-20 22:20 -25.83772 -53.82543 17443 ft 412 kts 316°
2026-04-20 22:21 -25.81821 -53.84878 16478 ft 413 kts 309°
2026-04-20 22:21 -25.80210 -53.87492 15728 ft 410 kts 302°
2026-04-20 22:21 -25.78720 -53.90180 15025 ft 406 kts 302°
2026-04-20 22:21 -25.77227 -53.92828 14315 ft 403 kts 303°
2026-04-20 22:22 -25.75741 -53.95436 13604 ft 400 kts 303°
2026-04-20 22:22 -25.74252 -53.98037 12866 ft 397 kts 303°
2026-04-20 22:22 -25.72775 -54.00611 12164 ft 393 kts 303°
2026-04-20 22:22 -25.71311 -54.03158 11489 ft 389 kts 303°
2026-04-20 22:23 -25.69875 -54.05656 11171 ft 377 kts 303°
2026-04-20 22:23 -25.68493 -54.08061 10971 ft 362 kts 303°
2026-04-20 22:23 -25.67263 -54.10199 10829 ft 349 kts 303°
2026-04-20 22:23 -25.65946 -54.12488 10660 ft 333 kts 303°
2026-04-20 22:24 -25.64743 -54.14579 10516 ft 312 kts 303°
2026-04-20 22:24 -25.63609 -54.16549 10382 ft 294 kts 303°
2026-04-20 22:24 -25.62522 -54.18435 10277 ft 288 kts 303°
2026-04-20 22:24 -25.61447 -54.20300 10171 ft 286 kts 303°
2026-04-20 22:25 -25.60374 -54.22158 10056 ft 285 kts 303°
2026-04-20 22:25 -25.59316 -54.23991 9868 ft 280 kts 303°
2026-04-20 22:25 -25.58282 -54.25783 9556 ft 279 kts 303°
2026-04-20 22:25 -25.57238 -54.27591 9253 ft 278 kts 303°
2026-04-20 22:26 -25.56200 -54.29388 8952 ft 276 kts 303°
2026-04-20 22:26 -25.55166 -54.31177 8649 ft 275 kts 303°
2026-04-20 22:26 -25.54137 -54.32958 8352 ft 274 kts 303°
2026-04-20 22:27 -25.52431 -54.35908 7855 ft 273 kts 303°
2026-04-20 22:27 -25.51064 -54.38271 7472 ft 271 kts 303°
2026-04-20 22:27 -25.50391 -54.39433 7293 ft 270 kts 303°
2026-04-20 22:27 -25.49377 -54.41186 6972 ft 271 kts 303°
2026-04-20 22:28 -25.48017 -54.43534 6561 ft 271 kts 303°
2026-04-20 22:28 -25.47344 -54.44695 6359 ft 271 kts 303°
2026-04-20 22:28 -25.46332 -54.46443 6048 ft 266 kts 303°
2026-04-20 22:28 -25.45349 -54.48138 5750 ft 258 kts 303°
2026-04-20 22:29 -25.44394 -54.49786 5486 ft 250 kts 303°
2026-04-20 22:29 -25.43469 -54.51381 5236 ft 242 kts 303°
2026-04-20 22:29 -25.42574 -54.52922 5025 ft 234 kts 303°
2026-04-20 22:29 -25.41708 -54.54415 4784 ft 227 kts 304°
2026-04-20 22:30 -25.40862 -54.55869 4564 ft 223 kts 304°
2026-04-20 22:30 -25.40101 -54.57347 4420 ft 220 kts 289°
2026-04-20 22:30 -25.40090 -54.59010 4329 ft 220 kts 251°
2026-04-20 22:30 -25.40933 -54.60372 4367 ft 214 kts 220°
2026-04-20 22:31 -25.42211 -54.61162 4295 ft 207 kts 202°
2026-04-20 22:31 -25.43546 -54.61720 4212 ft 201 kts 200°
2026-04-20 22:31 -25.44817 -54.62234 4079 ft 190 kts 200°
2026-04-20 22:31 -25.46038 -54.62731 3865 ft 182 kts 200°
2026-04-20 22:32 -25.47227 -54.63112 3705 ft 175 kts 182°
2026-04-20 22:32 -25.48262 -54.62681 3619 ft 155 kts 130°
2026-04-20 22:32 -25.48963 -54.61720 3339 ft 173 kts 135°
2026-04-20 22:32 -25.49900 -54.61028 3207 ft 159 kts 144°
2026-04-20 22:33 -25.50645 -54.60217 3077 ft 144 kts 125°
2026-04-20 22:33 -25.51316 -54.59349 2847 ft 148 kts 129°
2026-04-20 22:33 -25.52009 -54.58491 2649 ft 150 kts 128°
2026-04-20 22:33 -25.52686 -54.57626 2445 ft 149 kts 128°
2026-04-20 22:34 -25.53360 -54.56758 2268 ft 148 kts 128°
2026-04-20 22:34 -25.54031 -54.55891 2075 ft 148 kts 128°
2026-04-20 22:34 -25.54700 -54.55028 1886 ft 147 kts 128°
2026-04-20 22:34 -25.55363 -54.54172 1701 ft 147 kts 128°
2026-04-20 22:35 -25.56027 -54.53314 1519 ft 146 kts 129°
2026-04-20 22:35 -25.56686 -54.52463 1340 ft 144 kts 129°
2026-04-20 22:35 -25.57338 -54.51621 1152 ft 143 kts 130°
2026-04-20 22:35 -25.57939 -54.50847 989 ft 143 kts 130°
2026-04-20 22:36 -25.58578 -54.50017 828 ft 141 kts 130°
2026-04-20 22:36 -25.59206 -54.49211 797 ft 127 kts 130°
2026-04-20 22:36 -25.59528 -54.48800 798 ft 28 kts 130°
2026-04-20 22:36 -25.59628 -54.48679 797 ft 10 kts 154°
2026-04-20 22:37 -25.59674 -54.48693 797 ft 5 kts 217°
2026-04-20 22:37 -25.59702 -54.48720 797 ft 5 kts 222°
2026-04-20 22:37 -25.59730 -54.48745 797 ft 5 kts 219°
2026-04-20 22:37 -25.59757 -54.48770 797 ft 3 kts 221°
2026-04-20 22:38 -25.59759 -54.48772 797 ft 0 kts 221°